Time,TemperatureF,DewpointF,PressureIn,WindDirection,WindDirectionDegrees,WindSpeedMPH,WindSpeedGustMPH,Humidity,HourlyPrecipIn,Conditions,Clouds,dailyrainin,SoftwareType,DateUTC
2013-08-16 00:00:00,80.8,65.2,29.99,NE,42,0.0,0.0,59,0.00,,CLR,0.00,VWS V14.01,2013-08-16 05:00:00,
2013-08-16 00:02:00,79.5,65.3,29.99,SE,144,0.0,0.0,62,0.00,,FEW300,0.00,VWS V14.01,2013-08-16 05:02:00,
2013-08-16 00:05:00,80.5,65.3,29.99,ENE,62,0.0,0.0,60,0.00,,CLR,0.00,VWS V14.01,2013-08-16 05:05:00,
2013-08-16 00:07:00,79.3,65.2,29.99,SSE,150,0.0,0.0,62,0.00,,FEW300,0.00,VWS V14.01,2013-08-16 05:07:00,
2013-08-16 00:10:00,80.2,65.5,29.99,SE,144,0.0,0.0,61,0.00,,CLR,0.00,VWS V14.01,2013-08-16 05:10:00,
2013-08-16 00:12:00,79.2,65.5,29.98,SE,126,0.0,0.0,63,0.00,,FEW300,0.00,VWS V14.01,2013-08-16 05:12:00,
2013-08-16 00:15:00,80.2,65.5,29.99,ESE,120,0.0,2.0,61,0.00,,CLR,0.00,VWS V14.01,2013-08-16 05:15:00,
2013-08-16 00:19:00,79.0,65.3,29.98,SSE,147,0.0,0.0,63,0.00,,FEW300,0.00,VWS V14.01,2013-08-16 05:19:00,
2013-08-16 00:20:00,80.2,65.5,29.99,NE,50,0.0,1.0,61,0.00,,CLR,0.00,VWS V14.01,2013-08-16 05:20:00,
2013-08-16 00:24:00,78.9,65.2,29.98,SSW,196,0.0,1.0,63,0.00,,FEW300,0.00,VWS V14.01,2013-08-16 05:24:00,
2013-08-16 00:25:00,80.2,65.5,29.99,East,97,0.0,0.0,61,0.00,,CLR,0.00,VWS V14.01,2013-08-16 05:25:00,
2013-08-16 00:29:00,78.8,65.2,29.98,SSE,159,0.0,0.0,63,0.00,,FEW300,0.00,VWS V14.01,2013-08-16 05:29:00,
2013-08-16 00:30:00,80.1,65.4,29.99,East,84,0.0,1.0,61,0.00,,CLR,0.00,VWS V14.01,2013-08-16 05:30:00,
2013-08-16 00:34:00,78.6,65.4,29.98,SSE,157,0.0,0.0,64,0.00,,FEW300,0.00,VWS V14.01,2013-08-16 05:34:00,
2013-08-16 00:35:00,80.1,65.4,29.99,SSW,196,0.0,1.0,61,0.00,,CLR,0.00,VWS V14.01,2013-08-16 05:35:00,
2013-08-16 00:39:00,78.5,65.8,29.98,SSW,196,0.0,1.0,65,0.00,,FEW300,0.00,VWS V14.01,2013-08-16 05:39:00,
2013-08-16 00:40:00,80.0,65.4,29.99,SSE,157,0.0,1.0,61,0.00,,CLR,0.00,VWS V14.01,2013-08-16 05:40:00,
2013-08-16 00:44:00,78.4,65.2,29.98,SE,142,0.0,2.0,64,0.00,,FEW300,0.00,VWS V14.01,2013-08-16 05:44:00,
2013-08-16 00:45:00,79.9,65.3,29.99,SSW,210,0.0,3.0,61,0.00,,CLR,0.00,VWS V14.01,2013-08-16 05:45:00,
2013-08-16 00:49:00,78.3,65.1,29.98,SSW,195,0.0,0.0,64,0.00,,FEW300,0.00,VWS V14.01,2013-08-16 05:49:00,
2013-08-16 00:50:00,79.8,65.2,29.99,SSW,203,0.0,0.0,61,0.00,,CLR,0.00,VWS V14.01,2013-08-16 05:50:00,
2013-08-16 00:54:00,78.3,65.1,29.98,SW,223,0.0,1.0,64,0.00,,FEW300,0.00,VWS V14.01,2013-08-16 05:54:00,
2013-08-16 00:55:00,79.7,65.5,29.99,SE,134,0.0,1.0,62,0.00,,CLR,0.00,VWS V14.01,2013-08-16 05:55:00,
2013-08-16 00:59:00,78.2,65.0,29.98,SW,223,0.0,0.0,64,0.00,,FEW300,0.00,VWS V14.01,2013-08-16 05:59:00,
2013-08-16 01:00:00,79.5,65.3,29.99,SE,134,0.0,0.0,62,0.00,,CLR,0.00,VWS V14.01,2013-08-16 06:00:00,
2013-08-16 01:04:00,78.0,64.8,29.98,SSE,168,0.0,1.0,64,0.00,,SCT300,0.00,VWS V14.01,2013-08-16 06:04:00,
2013-08-16 01:05:00,79.4,65.3,29.99,SSE,150,0.0,0.0,62,0.00,,CLR,0.00,VWS V14.01,2013-08-16 06:05:00,
2013-08-16 01:09:00,77.8,65.1,29.98,SSE,168,0.0,0.0,65,0.00,,SCT300,0.00,VWS V14.01,2013-08-16 06:09:00,
2013-08-16 01:10:00,79.3,65.2,29.99,South,183,0.0,0.0,62,0.00,,CLR,0.00,VWS V14.01,2013-08-16 06:10:00,
2013-08-16 01:14:00,77.6,64.9,29.98,SSE,164,0.0,0.0,65,0.00,,SCT300,0.00,VWS V14.01,2013-08-16 06:14:00,
2013-08-16 01:15:00,79.1,65.4,29.98,SSW,198,0.0,0.0,63,0.00,,CLR,0.00,VWS V14.01,2013-08-16 06:15:00,
2013-08-16 01:19:00,77.5,64.8,29.98,SSW,196,0.0,0.0,65,0.00,,SCT300,0.00,VWS V14.01,2013-08-16 06:19:00,
2013-08-16 01:20:00,79.0,65.3,29.98,SE,146,0.0,0.0,63,0.00,,CLR,0.00,VWS V14.01,2013-08-16 06:20:00,
2013-08-16 01:24:00,77.4,64.7,29.98,SSW,199,0.0,1.0,65,0.00,,SCT300,0.00,VWS V14.01,2013-08-16 06:24:00,
2013-08-16 01:25:00,78.9,65.2,29.98,SSW,195,0.0,1.0,63,0.00,,CLR,0.00,VWS V14.01,2013-08-16 06:25:00,
2013-08-16 01:29:00,77.4,64.7,29.98,SSE,153,0.0,1.0,65,0.00,,SCT300,0.00,VWS V14.01,2013-08-16 06:29:00,
2013-08-16 01:30:00,78.8,65.2,29.98,SSE,159,0.0,0.0,63,0.00,,CLR,0.00,VWS V14.01,2013-08-16 06:30:00,
2013-08-16 01:34:00,77.3,64.6,29.98,SSE,153,0.0,0.0,65,0.00,,SCT300,0.00,VWS V14.01,2013-08-16 06:34:00,
2013-08-16 01:35:00,78.6,65.4,29.98,SSE,159,0.0,0.0,64,0.00,,CLR,0.00,VWS V14.01,2013-08-16 06:35:00,
2013-08-16 01:39:00,77.1,64.4,29.98,SSE,153,0.0,0.0,65,0.00,,SCT300,0.00,VWS V14.01,2013-08-16 06:39:00,
2013-08-16 01:40:00,78.4,65.7,29.98,SSW,196,0.0,1.0,65,0.00,,CLR,0.00,VWS V14.01,2013-08-16 06:40:00,
2013-08-16 01:44:00,76.8,64.6,29.98,SSE,153,0.0,0.0,66,0.00,,SCT300,0.00,VWS V14.01,2013-08-16 06:44:00,
2013-08-16 01:45:00,78.4,65.2,29.98,SE,141,0.0,2.0,64,0.00,,CLR,0.00,VWS V14.01,2013-08-16 06:45:00,
2013-08-16 01:49:00,76.6,64.4,29.98,SSE,151,0.0,0.0,66,0.00,,SCT300,0.00,VWS V14.01,2013-08-16 06:49:00,
2013-08-16 01:50:00,78.3,65.1,29.98,SSW,196,0.0,0.0,64,0.00,,CLR,0.00,VWS V14.01,2013-08-16 06:50:00,
2013-08-16 01:54:00,76.4,64.2,29.98,SSE,155,0.0,0.0,66,0.00,,SCT300,0.00,VWS V14.01,2013-08-16 06:54:00,
2013-08-16 01:55:00,78.3,65.1,29.98,SW,223,0.0,1.0,64,0.00,,CLR,0.00,VWS V14.01,2013-08-16 06:55:00,
2013-08-16 01:59:00,76.2,64.0,29.98,SSE,155,0.0,0.0,66,0.00,,SCT300,0.00,VWS V14.01,2013-08-16 06:59:00,
2013-08-16 02:00:00,78.1,64.9,29.98,SW,223,0.0,0.0,64,0.00,,CLR,0.00,VWS V14.01,2013-08-16 07:00:00,
2013-08-16 02:04:00,76.1,63.9,29.98,East,100,0.0,0.0,66,0.00,,SCT300,0.00,VWS V14.01,2013-08-16 07:04:00,
2013-08-16 02:05:00,78.0,64.8,29.98,South,169,0.0,1.0,64,0.00,,CLR,0.00,VWS V14.01,2013-08-16 07:05:00,
2013-08-16 02:09:00,76.1,63.5,29.98,SE,146,0.0,0.0,65,0.00,,SCT300,0.00,VWS V14.01,2013-08-16 07:09:00,
2013-08-16 02:10:00,77.8,65.1,29.98,SSE,168,0.0,0.0,65,0.00,,CLR,0.00,VWS V14.01,2013-08-16 07:10:00,
2013-08-16 02:14:00,76.1,63.5,29.98,South,188,0.0,0.0,65,0.00,,SCT300,0.00,VWS V14.01,2013-08-16 07:14:00,
2013-08-16 02:15:00,77.6,64.9,29.98,SSE,164,0.0,0.0,65,0.00,,CLR,0.00,VWS V14.01,2013-08-16 07:15:00,
2013-08-16 02:19:00,75.9,63.3,29.98,South,187,0.0,0.0,65,0.00,,SCT300,0.00,VWS V14.01,2013-08-16 07:19:00,
2013-08-16 02:20:00,77.5,64.8,29.98,SSW,196,0.0,0.0,65,0.00,,CLR,0.00,VWS V14.01,2013-08-16 07:20:00,
2013-08-16 02:24:00,75.7,63.5,29.98,South,188,0.0,0.0,66,0.00,,SCT300,0.00,VWS V14.01,2013-08-16 07:24:00,
2013-08-16 02:25:00,77.4,64.7,29.98,SSE,150,1.0,1.0,65,0.00,,CLR,0.00,VWS V14.01,2013-08-16 07:25:00,
2013-08-16 02:29:00,75.6,63.0,29.98,SSE,153,0.0,0.0,65,0.00,,SCT300,0.00,VWS V14.01,2013-08-16 07:29:00,
2013-08-16 02:30:00,77.4,64.7,29.98,SSE,153,0.0,1.0,65,0.00,,CLR,0.00,VWS V14.01,2013-08-16 07:30:00,
2013-08-16 02:34:00,75.5,62.9,29.98,ESE,113,0.0,1.0,65,0.00,,SCT300,0.00,VWS V14.01,2013-08-16 07:34:00,
2013-08-16 02:35:00,77.2,64.5,29.98,SSE,153,0.0,0.0,65,0.00,,CLR,0.00,VWS V14.01,2013-08-16 07:35:00,
2013-08-16 02:39:00,75.5,62.9,29.98,SSW,213,0.0,0.0,65,0.00,,SCT300,0.00,VWS V14.01,2013-08-16 07:39:00,
2013-08-16 02:40:00,77.1,64.4,29.98,SSE,153,0.0,0.0,65,0.00,,CLR,0.00,VWS V14.01,2013-08-16 07:40:00,
2013-08-16 02:44:00,75.4,62.8,29.98,SE,130,0.0,1.0,65,0.00,,SCT300,0.00,VWS V14.01,2013-08-16 07:44:00,
2013-08-16 02:45:00,76.8,64.6,29.98,SSE,153,0.0,0.0,66,0.00,,CLR,0.00,VWS V14.01,2013-08-16 07:45:00,
2013-08-16 02:49:00,75.5,62.5,29.98,NNW,348,0.0,0.0,64,0.00,,SCT300,0.00,VWS V14.01,2013-08-16 07:49:00,
2013-08-16 02:50:00,76.6,64.4,29.98,SSE,151,0.0,0.0,66,0.00,,CLR,0.00,VWS V14.01,2013-08-16 07:50:00,
2013-08-16 02:54:00,75.5,62.5,29.98,SE,146,0.0,0.0,64,0.00,,SCT300,0.00,VWS V14.01,2013-08-16 07:54:00,
2013-08-16 02:55:00,76.3,64.6,29.98,SSE,155,0.0,0.0,67,0.00,,CLR,0.00,VWS V14.01,2013-08-16 07:55:00,
2013-08-16 02:59:00,75.4,62.8,29.98,SE,135,0.0,1.0,65,0.00,,SCT300,0.00,VWS V14.01,2013-08-16 07:59:00,
2013-08-16 03:00:00,76.2,64.0,29.98,SSE,155,0.0,0.0,66,0.00,,CLR,0.00,VWS V14.01,2013-08-16 08:00:00,
2013-08-16 03:04:00,75.4,62.8,29.98,SSE,161,0.0,0.0,65,0.00,,FEW300,0.00,VWS V14.01,2013-08-16 08:04:00,
2013-08-16 03:05:00,76.1,63.9,29.98,East,100,0.0,0.0,66,0.00,,CLR,0.00,VWS V14.01,2013-08-16 08:05:00,
2013-08-16 03:09:00,75.5,62.5,29.98,NE,40,0.0,1.0,64,0.00,,FEW300,0.00,VWS V14.01,2013-08-16 08:09:00,
2013-08-16 03:10:00,76.1,63.5,29.98,SE,146,0.0,0.0,65,0.00,,CLR,0.00,VWS V14.01,2013-08-16 08:10:00,
2013-08-16 03:14:00,75.4,62.8,29.98,South,186,0.0,0.0,65,0.00,,FEW300,0.00,VWS V14.01,2013-08-16 08:14:00,
2013-08-16 03:15:00,76.0,63.4,29.98,South,187,0.0,0.0,65,0.00,,CLR,0.00,VWS V14.01,2013-08-16 08:15:00,
2013-08-16 03:19:00,75.3,62.7,29.99,SSE,150,0.0,0.0,65,0.00,,FEW300,0.00,VWS V14.01,2013-08-16 08:19:00,
2013-08-16 03:20:00,75.9,63.3,29.98,South,188,0.0,0.0,65,0.00,,CLR,0.00,VWS V14.01,2013-08-16 08:20:00,
2013-08-16 03:24:00,75.2,62.6,29.99,SSE,149,0.0,0.0,65,0.00,,FEW300,0.00,VWS V14.01,2013-08-16 08:24:00,
2013-08-16 03:25:00,75.7,63.5,29.98,South,187,0.0,0.0,66,0.00,,CLR,0.00,VWS V14.01,2013-08-16 08:25:00,
2013-08-16 03:29:00,75.2,62.6,29.99,SE,126,0.0,0.0,65,0.00,,FEW300,0.00,VWS V14.01,2013-08-16 08:29:00,
2013-08-16 03:30:00,75.6,63.0,29.98,SSE,154,0.0,0.0,65,0.00,,CLR,0.00,VWS V14.01,2013-08-16 08:30:00,
2013-08-16 03:34:00,75.1,63.0,29.99,SSE,160,0.0,0.0,66,0.00,,FEW300,0.00,VWS V14.01,2013-08-16 08:34:00,
2013-08-16 03:35:00,75.5,62.9,29.98,ENE,58,0.0,1.0,65,0.00,,CLR,0.00,VWS V14.01,2013-08-16 08:35:00,
2013-08-16 03:39:00,74.9,62.8,29.98,SSE,150,0.0,1.0,66,0.00,,FEW300,0.00,VWS V14.01,2013-08-16 08:39:00,
2013-08-16 03:40:00,75.4,62.8,29.98,SSW,213,0.0,0.0,65,0.00,,CLR,0.00,VWS V14.01,2013-08-16 08:40:00,
2013-08-16 03:44:00,74.8,62.7,29.98,SE,138,0.0,0.0,66,0.00,,FEW300,0.00,VWS V14.01,2013-08-16 08:44:00,
2013-08-16 03:45:00,75.4,62.8,29.98,SE,130,0.0,1.0,65,0.00,,CLR,0.00,VWS V14.01,2013-08-16 08:45:00,
2013-08-16 03:49:00,74.6,62.5,29.98,SE,136,0.0,1.0,66,0.00,,FEW300,0.00,VWS V14.01,2013-08-16 08:49:00,
2013-08-16 03:50:00,75.5,62.5,29.98,NNW,348,0.0,0.0,64,0.00,,CLR,0.00,VWS V14.01,2013-08-16 08:50:00,
2013-08-16 03:55:00,74.5,62.8,29.99,SE,136,0.0,0.0,67,0.00,,FEW300,0.00,VWS V14.01,2013-08-16 08:55:00,
2013-08-16 04:00:00,74.6,62.9,29.99,SE,134,0.0,0.0,67,0.00,,FEW250,0.00,VWS V14.01,2013-08-16 09:00:00,
2013-08-16 04:05:00,74.4,62.7,29.99,SSE,152,0.0,0.0,67,0.00,,FEW250,0.00,VWS V14.01,2013-08-16 09:05:00,
2013-08-16 04:10:00,74.4,62.7,29.99,SSE,153,0.0,0.0,67,0.00,,FEW250,0.00,VWS V14.01,2013-08-16 09:10:00,
2013-08-16 04:15:00,74.4,62.7,29.99,ENE,69,0.0,0.0,67,0.00,,FEW250,0.00,VWS V14.01,2013-08-16 09:15:00,
2013-08-16 04:20:00,74.5,62.4,29.99,ENE,61,0.0,1.0,66,0.00,,FEW250,0.00,VWS V14.01,2013-08-16 09:20:00,
2013-08-16 04:25:00,74.6,62.5,29.99,ENE,59,0.0,0.0,66,0.00,,FEW250,0.00,VWS V14.01,2013-08-16 09:25:00,
2013-08-16 04:30:00,74.7,62.6,30.00,ENE,61,0.0,0.0,66,0.00,,FEW250,0.00,VWS V14.01,2013-08-16 09:30:00,
2013-08-16 04:35:00,74.8,62.7,30.03,NNW,344,3.0,3.0,66,0.00,,FEW250,0.00,VWS V14.01,2013-08-16 09:35:00,
2013-08-16 04:40:00,75.1,63.0,30.05,North,351,4.0,9.0,66,0.00,,FEW250,0.00,VWS V14.01,2013-08-16 09:40:00,
2013-08-16 04:45:00,75.0,63.3,30.05,NE,40,6.0,10.0,67,0.00,,FEW250,0.00,VWS V14.01,2013-08-16 09:45:00,
2013-08-16 04:50:00,74.5,62.4,30.07,WNW,294,6.0,8.0,66,0.00,,FEW250,0.00,VWS V14.01,2013-08-16 09:50:00,
2013-08-16 04:55:00,73.5,62.3,30.07,NNE,27,7.0,15.0,68,0.00,,FEW250,0.00,VWS V14.01,2013-08-16 09:55:00,
2013-08-16 05:00:00,72.6,63.1,30.06,NNE,13,5.0,11.0,72,0.00,,BKN110,0.00,VWS V14.01,2013-08-16 10:00:00,
2013-08-16 05:05:00,71.2,64.0,30.06,NNE,25,3.0,10.0,78,0.01,,BKN110,0.01,VWS V14.01,2013-08-16 10:05:00,
2013-08-16 05:10:00,69.9,63.8,30.06,NNE,17,4.0,8.0,81,0.02,,BKN110,0.02,VWS V14.01,2013-08-16 10:10:00,
2013-08-16 05:15:00,69.1,63.7,30.06,NNE,28,10.0,10.0,83,0.02,,BKN110,0.02,VWS V14.01,2013-08-16 10:15:00,
2013-08-16 05:20:00,68.5,63.5,30.05,NNE,20,2.0,12.0,84,0.02,,BKN110,0.02,VWS V14.01,2013-08-16 10:20:00,
2013-08-16 05:25:00,68.3,63.6,30.05,North,350,0.0,6.0,85,0.02,,BKN110,0.02,VWS V14.01,2013-08-16 10:25:00,
2013-08-16 05:30:00,68.3,64.0,30.04,NE,42,2.0,6.0,86,0.02,,BKN110,0.02,VWS V14.01,2013-08-16 10:30:00,
2013-08-16 05:35:00,68.3,63.6,30.04,NNE,32,3.0,6.0,85,0.02,,BKN110,0.02,VWS V14.01,2013-08-16 10:35:00,
2013-08-16 05:40:00,68.3,63.6,30.04,NE,43,1.0,8.0,85,0.02,,BKN110,0.02,VWS V14.01,2013-08-16 10:40:00,
2013-08-16 05:45:00,68.4,63.4,30.05,ENE,58,1.0,6.0,84,0.02,,BKN110,0.02,VWS V14.01,2013-08-16 10:45:00,
2013-08-16 05:50:00,68.5,63.5,30.05,NE,47,2.0,5.0,84,0.02,,BKN110,0.02,VWS V14.01,2013-08-16 10:50:00,
2013-08-16 05:55:00,68.6,63.9,30.05,ENE,69,1.0,3.0,85,0.02,,BKN110,0.02,VWS V14.01,2013-08-16 10:55:00,
2013-08-16 06:00:00,68.5,63.8,30.05,ENE,61,0.0,0.0,85,0.02,,SHRA,0.02,VWS V14.01,2013-08-16 11:00:00,
2013-08-16 06:05:00,68.5,63.8,30.05,NE,47,0.0,1.0,85,0.02,,SHRA,0.02,VWS V14.01,2013-08-16 11:05:00,
2013-08-16 06:10:00,68.4,63.7,30.06,NNW,328,0.0,0.0,85,0.02,,SHRA,0.03,VWS V14.01,2013-08-16 11:10:00,
2013-08-16 06:15:00,68.4,64.1,30.06,NW,321,0.0,0.0,86,0.01,,SHRA,0.03,VWS V14.01,2013-08-16 11:15:00,
2013-08-16 06:20:00,68.3,64.3,30.05,NW,323,0.0,0.0,87,0.01,,SHRA,0.03,VWS V14.01,2013-08-16 11:20:00,
2013-08-16 06:25:00,68.1,64.1,30.06,NW,323,0.0,0.0,87,0.01,,SHRA,0.03,VWS V14.01,2013-08-16 11:25:00,
2013-08-16 06:30:00,68.1,64.4,30.05,WNW,294,0.0,0.0,88,0.02,,SHRA,0.04,VWS V14.01,2013-08-16 11:30:00,
2013-08-16 06:35:00,68.0,64.6,30.05,South,190,0.0,0.0,89,0.03,,SHRA,0.05,VWS V14.01,2013-08-16 11:35:00,
2013-08-16 06:40:00,67.9,64.5,30.04,SSW,206,0.0,1.0,89,0.04,,SHRA,0.06,VWS V14.01,2013-08-16 11:40:00,
2013-08-16 06:45:00,67.7,64.7,30.03,SE,138,1.0,2.0,90,0.04,,SHRA,0.06,VWS V14.01,2013-08-16 11:45:00,
2013-08-16 06:50:00,67.6,64.9,30.01,SSE,148,3.0,5.0,91,0.05,,SHRA,0.07,VWS V14.01,2013-08-16 11:50:00,
2013-08-16 06:55:00,67.6,64.9,30.00,WSW,245,4.0,5.0,91,0.05,,SHRA,0.07,VWS V14.01,2013-08-16 11:55:00,
2013-08-16 07:00:00,67.6,64.9,30.01,SW,219,2.0,6.0,91,0.06,,RA,0.08,VWS V14.01,2013-08-16 12:00:00,
2013-08-16 07:05:00,67.7,65.0,30.02,SSW,196,0.0,3.0,91,0.06,,RA,0.08,VWS V14.01,2013-08-16 12:05:00,
2013-08-16 07:10:00,67.7,65.0,30.02,SSW,192,0.0,4.0,91,0.06,,RA,0.08,VWS V14.01,2013-08-16 12:10:00,
2013-08-16 07:15:00,67.7,65.0,30.01,SE,144,2.0,4.0,91,0.05,,RA,0.08,VWS V14.01,2013-08-16 12:15:00,
2013-08-16 07:20:00,67.7,65.3,30.00,South,176,1.0,3.0,92,0.05,,RA,0.08,VWS V14.01,2013-08-16 12:20:00,
2013-08-16 07:25:00,67.7,65.0,30.00,SE,137,2.0,3.0,91,0.05,,RA,0.08,VWS V14.01,2013-08-16 12:25:00,
2013-08-16 07:30:00,67.7,65.0,30.00,SE,138,1.0,3.0,91,0.05,,RA,0.08,VWS V14.01,2013-08-16 12:30:00,
2013-08-16 07:35:00,67.7,65.0,30.00,SSW,210,1.0,3.0,91,0.04,,RA,0.08,VWS V14.01,2013-08-16 12:35:00,
2013-08-16 07:40:00,67.8,65.1,30.01,SE,133,0.0,3.0,91,0.03,,RA,0.08,VWS V14.01,2013-08-16 12:40:00,
2013-08-16 07:45:00,68.0,65.6,30.01,SSW,196,0.0,4.0,92,0.02,,RA,0.08,VWS V14.01,2013-08-16 12:45:00,
2013-08-16 07:50:00,68.1,65.4,30.02,WSW,245,0.0,1.0,91,0.02,,RA,0.08,VWS V14.01,2013-08-16 12:50:00,
2013-08-16 07:55:00,68.3,65.9,30.03,WSW,244,0.0,1.0,92,0.01,,RA,0.08,VWS V14.01,2013-08-16 12:55:00,
2013-08-16 08:00:00,68.3,65.9,30.04,NW,307,0.0,0.0,92,0.01,,-RA,0.08,VWS V14.01,2013-08-16 13:00:00,
2013-08-16 08:05:00,68.3,66.2,30.04,NW,316,0.0,0.0,93,0.00,,-RA,0.08,VWS V14.01,2013-08-16 13:05:00,
2013-08-16 08:10:00,68.3,66.2,30.03,NW,317,0.0,0.0,93,0.00,,-RA,0.08,VWS V14.01,2013-08-16 13:10:00,
2013-08-16 08:15:00,68.4,66.3,30.03,West,265,0.0,0.0,93,0.00,,-RA,0.08,VWS V14.01,2013-08-16 13:15:00,
2013-08-16 08:20:00,68.5,66.4,30.02,SSW,211,0.0,1.0,93,0.00,,-RA,0.08,VWS V14.01,2013-08-16 13:20:00,
2013-08-16 08:25:00,68.4,66.3,30.01,SE,140,0.0,2.0,93,0.00,,-RA,0.08,VWS V14.01,2013-08-16 13:25:00,
2013-08-16 08:30:00,68.3,66.2,30.00,SE,144,0.0,1.0,93,0.00,,-RA,0.08,VWS V14.01,2013-08-16 13:30:00,
2013-08-16 08:35:00,68.4,66.3,30.00,SE,128,0.0,0.0,93,0.00,,-RA,0.08,VWS V14.01,2013-08-16 13:35:00,
2013-08-16 08:40:00,68.5,66.4,30.00,SSE,159,0.0,1.0,93,0.00,,-RA,0.08,VWS V14.01,2013-08-16 13:40:00,
2013-08-16 08:45:00,68.5,66.4,29.98,SE,134,0.0,1.0,93,0.00,,-RA,0.08,VWS V14.01,2013-08-16 13:45:00,
2013-08-16 08:50:00,68.5,66.4,29.96,ESE,105,0.0,4.0,93,0.00,,-RA,0.08,VWS V14.01,2013-08-16 13:50:00,
2013-08-16 08:55:00,68.5,66.4,30.01,NNW,330,4.0,5.0,93,0.00,,-RA,0.08,VWS V14.01,2013-08-16 13:55:00,
2013-08-16 09:00:00,68.6,66.5,30.03,WNW,302,0.0,4.0,93,0.00,,OVC160,0.08,VWS V14.01,2013-08-16 14:00:00,
2013-08-16 09:05:00,68.7,66.6,30.03,NW,306,0.0,2.0,93,0.00,,OVC160,0.08,VWS V14.01,2013-08-16 14:05:00,
2013-08-16 09:10:00,68.8,66.7,30.02,NW,308,0.0,0.0,93,0.00,,OVC160,0.08,VWS V14.01,2013-08-16 14:10:00,
2013-08-16 09:15:00,69.0,66.9,30.04,NW,308,0.0,0.0,93,0.00,,OVC160,0.08,VWS V14.01,2013-08-16 14:15:00,
2013-08-16 09:20:00,69.2,67.1,30.03,NW,309,0.0,0.0,93,0.00,,OVC160,0.08,VWS V14.01,2013-08-16 14:20:00,
2013-08-16 09:25:00,69.4,67.3,30.03,NW,307,0.0,0.0,93,0.00,,OVC160,0.08,VWS V14.01,2013-08-16 14:25:00,
2013-08-16 09:30:00,69.6,67.5,30.04,NW,307,0.0,0.0,93,0.00,,OVC160,0.08,VWS V14.01,2013-08-16 14:30:00,
2013-08-16 09:35:00,69.9,67.8,30.02,SSW,205,0.0,1.0,93,0.00,,OVC160,0.08,VWS V14.01,2013-08-16 14:35:00,
2013-08-16 09:40:00,70.1,67.7,30.01,SE,145,0.0,2.0,92,0.00,,OVC160,0.08,VWS V14.01,2013-08-16 14:40:00,
2013-08-16 09:45:00,70.3,67.9,30.01,ESE,121,0.0,3.0,92,0.00,,OVC160,0.08,VWS V14.01,2013-08-16 14:45:00,
2013-08-16 09:50:00,70.4,67.3,30.02,SSW,192,0.0,1.0,90,0.00,,OVC160,0.08,VWS V14.01,2013-08-16 14:50:00,
2013-08-16 09:55:00,70.6,67.8,30.02,SSW,192,0.0,0.0,91,0.00,,OVC160,0.08,VWS V14.01,2013-08-16 14:55:00,
2013-08-16 10:00:00,70.9,67.8,30.03,NNW,339,0.0,1.0,90,0.00,,OVC170,0.08,VWS V14.01,2013-08-16 15:00:00,
2013-08-16 10:05:00,71.2,68.1,30.02,SE,127,0.0,1.0,90,0.00,,OVC170,0.08,VWS V14.01,2013-08-16 15:05:00,
2013-08-16 10:10:00,71.5,68.1,30.02,SSE,150,0.0,1.0,89,0.00,,OVC170,0.08,VWS V14.01,2013-08-16 15:10:00,
2013-08-16 10:15:00,71.8,68.1,30.02,ESE,111,0.0,0.0,88,0.00,,OVC170,0.08,VWS V14.01,2013-08-16 15:15:00,
2013-08-16 10:20:00,72.0,67.6,30.03,NE,36,0.0,1.0,86,0.00,,OVC170,0.08,VWS V14.01,2013-08-16 15:20:00,
2013-08-16 10:25:00,72.0,67.2,30.02,NE,43,0.0,2.0,85,0.00,,OVC170,0.08,VWS V14.01,2013-08-16 15:25:00,
2013-08-16 10:30:00,72.1,67.7,30.02,NE,43,0.0,1.0,86,0.00,,OVC170,0.08,VWS V14.01,2013-08-16 15:30:00,
2013-08-16 10:35:00,72.5,68.1,30.02,NE,44,0.0,0.0,86,0.00,,OVC170,0.08,VWS V14.01,2013-08-16 15:35:00,
2013-08-16 10:40:00,72.5,67.4,30.02,NE,44,0.0,0.0,84,0.00,,OVC170,0.08,VWS V14.01,2013-08-16 15:40:00,
2013-08-16 10:45:00,72.6,67.8,30.02,NNE,32,0.0,1.0,85,0.00,,OVC170,0.08,VWS V14.01,2013-08-16 15:45:00,
2013-08-16 10:50:00,72.8,67.7,30.03,NE,43,2.0,2.0,84,0.00,,OVC170,0.08,VWS V14.01,2013-08-16 15:50:00,
2013-08-16 10:55:00,73.0,67.9,30.03,ENE,61,0.0,2.0,84,0.00,,OVC170,0.08,VWS V14.01,2013-08-16 15:55:00,
2013-08-16 11:00:00,73.2,67.4,30.03,NE,40,0.0,1.0,82,0.00,,OVC240,0.08,VWS V14.01,2013-08-16 16:00:00,
2013-08-16 11:05:00,73.4,67.2,30.03,NE,50,0.0,1.0,81,0.00,,OVC240,0.08,VWS V14.01,2013-08-16 16:05:00,
2013-08-16 11:10:00,73.7,66.4,30.03,NE,40,0.0,1.0,78,0.00,,OVC240,0.08,VWS V14.01,2013-08-16 16:10:00,
2013-08-16 11:15:00,73.9,67.7,30.03,NE,43,0.0,0.0,81,0.00,,OVC240,0.08,VWS V14.01,2013-08-16 16:15:00,
2013-08-16 11:20:00,74.2,67.3,30.03,NE,55,0.0,2.0,79,0.00,,OVC240,0.08,VWS V14.01,2013-08-16 16:20:00,
2013-08-16 11:25:00,74.2,66.9,30.03,NE,43,0.0,3.0,78,0.00,,OVC240,0.08,VWS V14.01,2013-08-16 16:25:00,
2013-08-16 11:30:00,74.8,67.5,30.04,NE,38,0.0,0.0,78,0.00,,OVC240,0.08,VWS V14.01,2013-08-16 16:30:00,
2013-08-16 11:35:00,75.1,67.4,30.03,NE,53,0.0,2.0,77,0.00,,OVC240,0.08,VWS V14.01,2013-08-16 16:35:00,
2013-08-16 11:40:00,75.5,68.2,30.03,WNW,285,0.0,2.0,78,0.00,,OVC240,0.08,VWS V14.01,2013-08-16 16:40:00,
2013-08-16 11:45:00,76.1,68.0,30.03,NW,326,0.0,2.0,76,0.00,,OVC240,0.08,VWS V14.01,2013-08-16 16:45:00,
2013-08-16 11:50:00,76.4,68.3,30.03,NE,38,0.0,0.0,76,0.00,,OVC240,0.08,VWS V14.01,2013-08-16 16:50:00,
2013-08-16 11:55:00,77.1,68.6,30.03,ENE,61,0.0,0.0,75,0.00,,OVC240,0.08,VWS V14.01,2013-08-16 16:55:00,
2013-08-16 12:00:00,77.6,68.3,30.03,NW,304,0.0,0.0,73,0.00,,BKN250,0.08,VWS V14.01,2013-08-16 17:00:00,
2013-08-16 12:05:00,78.3,68.1,30.03,WNW,294,1.0,1.0,71,0.00,,BKN250,0.08,VWS V14.01,2013-08-16 17:05:00,
2013-08-16 12:10:00,78.6,68.4,30.03,NE,34,0.0,0.0,71,0.00,,BKN250,0.08,VWS V14.01,2013-08-16 17:10:00,
2013-08-16 12:15:00,79.7,67.8,30.03,SSW,200,1.0,1.0,67,0.00,,BKN250,0.08,VWS V14.01,2013-08-16 17:15:00,
2013-08-16 12:20:00,80.4,67.6,30.03,SW,218,0.0,1.0,65,0.00,,BKN250,0.08,VWS V14.01,2013-08-16 17:20:00,
2013-08-16 12:25:00,80.8,67.5,30.03,SSE,168,0.0,0.0,64,0.00,,BKN250,0.08,VWS V14.01,2013-08-16 17:25:00,
2013-08-16 12:30:00,81.2,67.9,30.03,SE,134,0.0,0.0,64,0.00,,BKN250,0.08,VWS V14.01,2013-08-16 17:30:00,
2013-08-16 12:35:00,81.1,68.2,30.03,East,85,0.0,0.0,65,0.00,,BKN250,0.08,VWS V14.01,2013-08-16 17:35:00,
2013-08-16 12:40:00,80.8,67.0,30.03,NNW,348,1.0,1.0,63,0.00,,BKN250,0.08,VWS V14.01,2013-08-16 17:40:00,
2013-08-16 12:45:00,80.6,67.3,30.03,NE,44,1.0,1.0,64,0.00,,BKN250,0.08,VWS V14.01,2013-08-16 17:45:00,
2013-08-16 12:50:00,81.0,67.7,30.03,NE,47,1.0,1.0,64,0.00,,BKN250,0.08,VWS V14.01,2013-08-16 17:50:00,
2013-08-16 12:55:00,81.0,67.7,30.03,NE,44,2.0,4.0,64,0.00,,BKN250,0.08,VWS V14.01,2013-08-16 17:55:00,
2013-08-16 13:00:00,80.6,66.8,30.03,WSW,238,0.0,0.0,63,0.00,,BKN250,0.08,VWS V14.01,2013-08-16 18:00:00,
2013-08-16 13:05:00,81.2,67.9,30.03,NE,44,0.0,1.0,64,0.00,,BKN250,0.08,VWS V14.01,2013-08-16 18:05:00,
2013-08-16 13:10:00,81.4,67.1,30.03,NE,50,0.0,0.0,62,0.00,,BKN250,0.08,VWS V14.01,2013-08-16 18:10:00,
2013-08-16 13:15:00,81.7,67.9,30.02,West,266,0.0,0.0,63,0.00,,BKN250,0.08,VWS V14.01,2013-08-16 18:15:00,
2013-08-16 13:20:00,82.2,68.4,30.02,NE,34,0.0,0.0,63,0.00,,BKN250,0.08,VWS V14.01,2013-08-16 18:20:00,
2013-08-16 13:25:00,82.3,68.0,30.01,ENE,58,0.0,0.0,62,0.00,,BKN250,0.08,VWS V14.01,2013-08-16 18:25:00,
2013-08-16 13:30:00,82.1,66.8,30.01,SSE,159,0.0,0.0,60,0.00,,BKN250,0.08,VWS V14.01,2013-08-16 18:30:00,
2013-08-16 13:35:00,82.9,67.6,30.01,South,187,0.0,0.0,60,0.00,,BKN250,0.08,VWS V14.01,2013-08-16 18:35:00,
2013-08-16 13:40:00,83.8,67.5,30.01,NE,50,3.0,3.0,58,0.00,,BKN250,0.08,VWS V14.01,2013-08-16 18:40:00,
2013-08-16 13:45:00,83.6,67.8,30.01,NE,40,3.0,4.0,59,0.00,,BKN250,0.08,VWS V14.01,2013-08-16 18:45:00,
2013-08-16 13:50:00,83.6,67.8,30.01,NE,44,3.0,4.0,59,0.00,,BKN250,0.08,VWS V14.01,2013-08-16 18:50:00,
2013-08-16 13:55:00,83.8,68.4,30.00,NNE,13,0.0,0.0,60,0.00,,BKN250,0.08,VWS V14.01,2013-08-16 18:55:00,
2013-08-16 14:00:00,84.5,67.6,30.00,NE,38,3.0,3.0,57,0.00,,BKN250,0.08,VWS V14.01,2013-08-16 19:00:00,
2013-08-16 14:05:00,84.6,68.2,30.00,NNW,332,1.0,1.0,58,0.00,,BKN250,0.08,VWS V14.01,2013-08-16 19:05:00,
2013-08-16 14:10:00,84.9,66.9,30.00,ENE,66,0.0,3.0,55,0.00,,BKN250,0.08,VWS V14.01,2013-08-16 19:10:00,
2013-08-16 14:15:00,84.3,66.4,30.00,ENE,57,2.0,2.0,55,0.00,,BKN250,0.08,VWS V14.01,2013-08-16 19:15:00,
2013-08-16 14:20:00,84.6,66.7,30.00,NE,53,2.0,5.0,55,0.00,,BKN250,0.08,VWS V14.01,2013-08-16 19:20:00,
2013-08-16 14:25:00,85.0,66.5,30.00,NNE,28,1.0,1.0,54,0.00,,BKN250,0.08,VWS V14.01,2013-08-16 19:25:00,
2013-08-16 14:30:00,85.4,66.9,30.00,NNE,30,3.0,3.0,54,0.00,,BKN250,0.08,VWS V14.01,2013-08-16 19:30:00,
2013-08-16 14:35:00,85.9,66.8,29.99,NNE,15,1.0,2.0,53,0.00,,BKN250,0.08,VWS V14.01,2013-08-16 19:35:00,
2013-08-16 14:40:00,85.9,66.2,29.99,WNW,300,0.0,1.0,52,0.00,,BKN250,0.08,VWS V14.01,2013-08-16 19:40:00,
2013-08-16 14:45:00,86.2,66.5,29.99,NE,34,1.0,2.0,52,0.00,,BKN250,0.08,VWS V14.01,2013-08-16 19:45:00,
2013-08-16 14:50:00,86.1,67.0,29.98,NE,39,2.0,2.0,53,0.00,,BKN250,0.08,VWS V14.01,2013-08-16 19:50:00,
2013-08-16 14:55:00,86.2,67.1,29.98,NE,40,0.0,4.0,53,0.00,,BKN250,0.08,VWS V14.01,2013-08-16 19:55:00,
2013-08-16 15:00:00,86.2,68.2,29.98,NE,40,0.0,0.0,55,0.00,,SCT250,0.08,VWS V14.01,2013-08-16 20:00:00,
2013-08-16 15:05:00,87.0,67.8,29.98,NNW,345,1.0,2.0,53,0.00,,SCT250,0.08,VWS V14.01,2013-08-16 20:05:00,
2013-08-16 15:10:00,87.1,67.9,29.98,NNW,342,1.0,1.0,53,0.00,,SCT250,0.08,VWS V14.01,2013-08-16 20:10:00,
2013-08-16 15:15:00,87.2,67.4,29.98,NNE,25,4.0,6.0,52,0.00,,SCT250,0.08,VWS V14.01,2013-08-16 20:15:00,
2013-08-16 15:20:00,87.0,68.4,29.98,ENE,58,3.0,3.0,54,0.00,,SCT250,0.08,VWS V14.01,2013-08-16 20:20:00,
2013-08-16 15:25:00,87.0,67.3,29.98,NW,325,2.0,2.0,52,0.00,,SCT250,0.08,VWS V14.01,2013-08-16 20:25:00,
2013-08-16 15:30:00,86.7,67.0,29.97,SSE,159,0.0,0.0,52,0.00,,SCT250,0.08,VWS V14.01,2013-08-16 20:30:00,
2013-08-16 15:35:00,86.9,68.3,29.97,NE,51,0.0,4.0,54,0.00,,SCT250,0.08,VWS V14.01,2013-08-16 20:35:00,
2013-08-16 15:40:00,87.2,68.0,29.97,NE,42,2.0,3.0,53,0.00,,SCT250,0.08,VWS V14.01,2013-08-16 20:40:00,
2013-08-16 15:45:00,87.3,67.0,29.97,NE,50,0.0,7.0,51,0.00,,SCT250,0.08,VWS V14.01,2013-08-16 20:45:00,
2013-08-16 15:50:00,87.4,68.2,29.97,WSW,254,0.0,3.0,53,0.00,,SCT250,0.08,VWS V14.01,2013-08-16 20:50:00,
2013-08-16 15:55:00,87.5,67.7,29.97,East,86,0.0,7.0,52,0.00,,SCT250,0.08,VWS V14.01,2013-08-16 20:55:00,
2013-08-16 16:00:00,87.4,67.1,29.97,NE,49,4.0,5.0,51,0.00,,FEW250,0.08,VWS V14.01,2013-08-16 21:00:00,
2013-08-16 16:05:00,87.7,68.5,29.97,NE,48,3.0,3.0,53,0.00,,FEW250,0.08,VWS V14.01,2013-08-16 21:05:00,
2013-08-16 16:10:00,87.8,67.4,29.97,NE,47,1.0,3.0,51,0.00,,FEW250,0.08,VWS V14.01,2013-08-16 21:10:00,
2013-08-16 16:15:00,87.8,67.4,29.97,NE,34,2.0,4.0,51,0.00,,FEW250,0.08,VWS V14.01,2013-08-16 21:15:00,
2013-08-16 16:20:00,88.0,67.6,29.97,NE,51,1.0,1.0,51,0.00,,FEW250,0.08,VWS V14.01,2013-08-16 21:20:00,
2013-08-16 16:25:00,86.9,67.7,29.97,NW,322,1.0,8.0,53,0.00,,CLR,0.08,VWS V14.01,2013-08-16 21:25:00,
2013-08-16 16:26:00,88.4,66.8,29.97,NE,35,0.0,5.0,49,0.00,,FEW250,0.08,VWS V14.01,2013-08-16 21:26:00,
2013-08-16 16:30:00,86.8,67.6,29.97,SSW,196,0.0,7.0,53,0.00,,CLR,0.08,VWS V14.01,2013-08-16 21:30:00,
2013-08-16 16:31:00,88.0,66.5,29.97,NE,38,4.0,5.0,49,0.00,,FEW250,0.08,VWS V14.01,2013-08-16 21:31:00,
2013-08-16 16:35:00,86.8,67.1,29.97,NE,38,2.0,6.0,52,0.00,,CLR,0.08,VWS V14.01,2013-08-16 21:35:00,
2013-08-16 16:36:00,87.3,65.8,29.97,ENE,63,3.0,6.0,49,0.00,,FEW250,0.08,VWS V14.01,2013-08-16 21:36:00,
2013-08-16 16:40:00,87.2,68.0,29.97,ENE,57,0.0,7.0,53,0.00,,CLR,0.08,VWS V14.01,2013-08-16 21:40:00,
2013-08-16 16:41:00,87.0,66.1,29.96,NE,50,0.0,2.0,50,0.00,,FEW250,0.08,VWS V14.01,2013-08-16 21:41:00,
2013-08-16 16:45:00,87.4,67.6,29.97,NE,50,7.0,8.0,52,0.00,,CLR,0.08,VWS V14.01,2013-08-16 21:45:00,
2013-08-16 16:46:00,87.2,65.7,29.96,NW,326,3.0,6.0,49,0.00,,FEW250,0.08,VWS V14.01,2013-08-16 21:46:00,
2013-08-16 16:50:00,87.3,68.1,29.97,NE,50,1.0,7.0,53,0.00,,CLR,0.08,VWS V14.01,2013-08-16 21:50:00,
2013-08-16 16:51:00,87.2,66.3,29.96,NNE,27,4.0,4.0,50,0.00,,FEW250,0.08,VWS V14.01,2013-08-16 21:51:00,
2013-08-16 16:55:00,87.5,68.3,29.97,ENE,67,5.0,8.0,53,0.00,,CLR,0.08,VWS V14.01,2013-08-16 21:55:00,
2013-08-16 16:56:00,87.5,66.6,29.96,NNE,28,4.0,6.0,50,0.00,,FEW250,0.08,VWS V14.01,2013-08-16 21:56:00,
2013-08-16 17:00:00,87.4,67.6,29.97,ENE,69,4.0,7.0,52,0.00,,CLR,0.08,VWS V14.01,2013-08-16 22:00:00,
2013-08-16 17:01:00,87.7,66.2,29.96,ENE,74,2.0,3.0,49,0.00,,FEW250,0.08,VWS V14.01,2013-08-16 22:01:00,
2013-08-16 17:05:00,87.7,67.9,29.97,NNE,26,0.0,5.0,52,0.00,,CLR,0.08,VWS V14.01,2013-08-16 22:05:00,
2013-08-16 17:06:00,87.7,66.2,29.96,NNW,348,1.0,3.0,49,0.00,,FEW250,0.08,VWS V14.01,2013-08-16 22:06:00,
2013-08-16 17:10:00,87.9,67.5,29.97,East,86,3.0,6.0,51,0.00,,CLR,0.08,VWS V14.01,2013-08-16 22:10:00,
2013-08-16 17:11:00,87.7,66.2,29.96,NE,38,1.0,4.0,49,0.00,,FEW250,0.08,VWS V14.01,2013-08-16 22:11:00,
2013-08-16 17:15:00,87.8,67.4,29.97,NNW,348,0.0,5.0,51,0.00,,CLR,0.08,VWS V14.01,2013-08-16 22:15:00,
2013-08-16 17:16:00,87.4,65.9,29.96,ENE,58,2.0,4.0,49,0.00,,FEW250,0.08,VWS V14.01,2013-08-16 22:16:00,
2013-08-16 17:20:00,87.9,67.5,29.97,SW,221,0.0,4.0,51,0.00,,CLR,0.08,VWS V14.01,2013-08-16 22:20:00,
2013-08-16 17:21:00,87.5,66.0,29.96,NE,40,1.0,1.0,49,0.00,,FEW250,0.08,VWS V14.01,2013-08-16 22:21:00,
2013-08-16 17:25:00,88.4,67.4,29.97,North,11,2.0,4.0,50,0.00,,CLR,0.08,VWS V14.01,2013-08-16 22:25:00,
2013-08-16 17:26:00,87.4,65.9,29.96,NE,50,2.0,2.0,49,0.00,,FEW250,0.08,VWS V14.01,2013-08-16 22:26:00,
2013-08-16 17:30:00,88.0,66.5,29.97,NE,53,1.0,8.0,49,0.00,,CLR,0.08,VWS V14.01,2013-08-16 22:30:00,
2013-08-16 17:31:00,87.5,66.0,29.96,NNE,28,2.0,4.0,49,0.00,,FEW250,0.08,VWS V14.01,2013-08-16 22:31:00,
2013-08-16 17:35:00,87.4,65.9,29.97,NE,44,2.0,7.0,49,0.00,,CLR,0.08,VWS V14.01,2013-08-16 22:35:00,
2013-08-16 17:36:00,87.6,66.1,29.96,NNE,12,1.0,1.0,49,0.00,,FEW250,0.08,VWS V14.01,2013-08-16 22:36:00,
2013-08-16 17:40:00,87.0,65.6,29.96,ENE,66,2.0,6.0,49,0.00,,CLR,0.08,VWS V14.01,2013-08-16 22:40:00,
2013-08-16 17:41:00,87.7,66.2,29.96,NE,53,3.0,5.0,49,0.00,,FEW250,0.08,VWS V14.01,2013-08-16 22:41:00,
2013-08-16 17:45:00,87.2,65.7,29.96,NW,325,1.0,5.0,49,0.00,,CLR,0.08,VWS V14.01,2013-08-16 22:45:00,
2013-08-16 17:46:00,87.6,66.1,29.96,NW,307,3.0,4.0,49,0.00,,FEW250,0.08,VWS V14.01,2013-08-16 22:46:00,
2013-08-16 17:50:00,87.2,66.3,29.96,NNE,31,3.0,6.0,50,0.00,,CLR,0.08,VWS V14.01,2013-08-16 22:50:00,
2013-08-16 17:51:00,87.5,66.0,29.96,NE,50,4.0,4.0,49,0.00,,FEW250,0.08,VWS V14.01,2013-08-16 22:51:00,
2013-08-16 17:55:00,87.4,66.5,29.96,NW,315,0.0,4.0,50,0.00,,CLR,0.08,VWS V14.01,2013-08-16 22:55:00,
2013-08-16 17:56:00,87.4,65.9,29.96,NE,47,4.0,4.0,49,0.00,,FEW250,0.08,VWS V14.01,2013-08-16 22:56:00,
2013-08-16 18:00:00,87.7,66.2,29.96,NW,320,0.0,6.0,49,0.00,,CLR,0.08,VWS V14.01,2013-08-16 23:00:00,
2013-08-16 18:01:00,87.2,65.7,29.96,NW,306,2.0,2.0,49,0.00,,FEW250,0.08,VWS V14.01,2013-08-16 23:01:00,
2013-08-16 18:05:00,87.6,66.7,29.96,NNW,328,1.0,6.0,50,0.00,,CLR,0.08,VWS V14.01,2013-08-16 23:05:00,
2013-08-16 18:06:00,86.9,65.5,29.96,NNE,31,4.0,5.0,49,0.00,,FEW250,0.08,VWS V14.01,2013-08-16 23:06:00,
2013-08-16 18:10:00,87.7,65.6,29.96,NNE,28,4.0,5.0,48,0.00,,CLR,0.08,VWS V14.01,2013-08-16 23:10:00,
2013-08-16 18:11:00,87.0,65.6,29.96,NE,38,4.0,4.0,49,0.00,,FEW250,0.08,VWS V14.01,2013-08-16 23:11:00,
2013-08-16 18:15:00,87.5,66.0,29.96,NE,46,0.0,5.0,49,0.00,,CLR,0.08,VWS V14.01,2013-08-16 23:15:00,
2013-08-16 18:16:00,87.0,65.6,29.96,NE,38,3.0,3.0,49,0.00,,FEW250,0.08,VWS V14.01,2013-08-16 23:16:00,
2013-08-16 18:20:00,87.5,66.0,29.96,WNW,298,0.0,7.0,49,0.00,,CLR,0.08,VWS V14.01,2013-08-16 23:20:00,
2013-08-16 18:21:00,86.9,65.5,29.96,ENE,64,0.0,1.0,49,0.00,,FEW250,0.08,VWS V14.01,2013-08-16 23:21:00,
2013-08-16 18:25:00,87.5,65.4,29.96,NNE,19,2.0,6.0,48,0.00,,CLR,0.08,VWS V14.01,2013-08-16 23:25:00,
2013-08-16 18:26:00,86.9,65.5,29.96,ENE,58,2.0,3.0,49,0.00,,FEW250,0.08,VWS V14.01,2013-08-16 23:26:00,
2013-08-16 18:30:00,87.5,66.6,29.96,NE,50,2.0,4.0,50,0.00,,CLR,0.08,VWS V14.01,2013-08-16 23:30:00,
2013-08-16 18:31:00,86.9,65.5,29.96,NNE,30,2.0,5.0,49,0.00,,FEW250,0.08,VWS V14.01,2013-08-16 23:31:00,
2013-08-16 18:35:00,87.6,66.1,29.96,NE,39,0.0,5.0,49,0.00,,CLR,0.08,VWS V14.01,2013-08-16 23:35:00,
2013-08-16 18:36:00,86.9,65.5,29.96,NNW,335,2.0,3.0,49,0.00,,FEW250,0.08,VWS V14.01,2013-08-16 23:36:00,
2013-08-16 18:40:00,87.7,66.2,29.96,NE,35,4.0,5.0,49,0.00,,CLR,0.08,VWS V14.01,2013-08-16 23:40:00,
2013-08-16 18:41:00,86.9,65.5,29.96,NNW,339,0.0,3.0,49,0.00,,FEW250,0.08,VWS V14.01,2013-08-16 23:41:00,
2013-08-16 18:45:00,87.6,66.1,29.96,NE,34,1.0,5.0,49,0.00,,CLR,0.08,VWS V14.01,2013-08-16 23:45:00,
2013-08-16 18:46:00,86.7,65.3,29.96,North,11,1.0,2.0,49,0.00,,FEW250,0.08,VWS V14.01,2013-08-16 23:46:00,
2013-08-16 18:50:00,87.5,66.0,29.96,NE,42,4.0,8.0,49,0.00,,CLR,0.08,VWS V14.01,2013-08-16 23:50:00,
2013-08-16 18:51:00,86.6,64.6,29.96,NE,47,1.0,3.0,48,0.00,,FEW250,0.08,VWS V14.01,2013-08-16 23:51:00,
2013-08-16 18:55:00,87.4,65.9,29.96,ENE,58,0.0,6.0,49,0.00,,CLR,0.08,VWS V14.01,2013-08-16 23:55:00,
2013-08-16 18:56:00,86.5,64.5,29.96,NE,39,2.0,4.0,48,0.00,,FEW250,0.08,VWS V14.01,2013-08-16 23:56:00,
2013-08-16 19:00:00,87.3,65.2,29.96,ESE,107,1.0,4.0,48,0.00,,CLR,0.08,VWS V14.01,2013-08-17 00:00:00,
2013-08-16 19:01:00,86.4,64.4,29.96,NNE,30,2.0,4.0,48,0.00,,FEW060,0.08,VWS V14.01,2013-08-17 00:01:00,
2013-08-16 19:05:00,86.9,65.5,29.96,NE,44,2.0,4.0,49,0.00,,CLR,0.08,VWS V14.01,2013-08-17 00:05:00,
2013-08-16 19:06:00,86.3,63.7,29.97,NE,40,4.0,4.0,47,0.00,,FEW060,0.08,VWS V14.01,2013-08-17 00:06:00,
2013-08-16 19:10:00,87.0,65.6,29.96,NE,42,0.0,5.0,49,0.00,,CLR,0.08,VWS V14.01,2013-08-17 00:10:00,
2013-08-16 19:11:00,86.1,63.5,29.96,NNW,332,0.0,2.0,47,0.00,,FEW060,0.08,VWS V14.01,2013-08-17 00:11:00,
2013-08-16 19:15:00,87.0,65.6,29.97,ENE,57,1.0,8.0,49,0.00,,CLR,0.08,VWS V14.01,2013-08-17 00:15:00,
2013-08-16 19:16:00,85.9,64.0,29.96,WNW,300,0.0,1.0,48,0.00,,FEW060,0.08,VWS V14.01,2013-08-17 00:16:00,
2013-08-16 19:20:00,86.9,65.5,29.96,East,88,1.0,4.0,49,0.00,,CLR,0.08,VWS V14.01,2013-08-17 00:20:00,
2013-08-16 19:21:00,85.9,64.0,29.97,NE,34,0.0,4.0,48,0.00,,FEW060,0.08,VWS V14.01,2013-08-17 00:21:00,
2013-08-16 19:25:00,86.9,65.5,29.96,NE,36,0.0,7.0,49,0.00,,CLR,0.08,VWS V14.01,2013-08-17 00:25:00,
2013-08-16 19:26:00,85.7,63.8,29.97,NW,313,2.0,3.0,48,0.00,,FEW060,0.08,VWS V14.01,2013-08-17 00:26:00,
2013-08-16 19:30:00,87.0,65.6,29.96,NE,44,2.0,5.0,49,0.00,,CLR,0.08,VWS V14.01,2013-08-17 00:30:00,
2013-08-16 19:31:00,85.6,63.7,29.97,NE,54,0.0,2.0,48,0.00,,FEW060,0.08,VWS V14.01,2013-08-17 00:31:00,
2013-08-16 19:35:00,87.0,65.6,29.96,NW,320,1.0,5.0,49,0.00,,CLR,0.08,VWS V14.01,2013-08-17 00:35:00,
2013-08-16 19:36:00,85.4,63.5,29.97,NE,40,1.0,6.0,48,0.00,,FEW060,0.08,VWS V14.01,2013-08-17 00:36:00,
2013-08-16 19:40:00,86.9,64.9,29.96,ENE,76,2.0,3.0,48,0.00,,CLR,0.08,VWS V14.01,2013-08-17 00:40:00,
2013-08-16 19:41:00,85.3,63.4,29.97,NE,39,0.0,0.0,48,0.00,,FEW060,0.08,VWS V14.01,2013-08-17 00:41:00,
2013-08-16 19:45:00,86.7,65.3,29.96,NNE,30,1.0,4.0,49,0.00,,CLR,0.08,VWS V14.01,2013-08-17 00:45:00,
2013-08-16 19:46:00,85.1,63.2,29.97,NE,36,0.0,3.0,48,0.00,,FEW060,0.08,VWS V14.01,2013-08-17 00:46:00,
2013-08-16 19:50:00,86.6,65.2,29.96,North,5,1.0,4.0,49,0.00,,CLR,0.08,VWS V14.01,2013-08-17 00:50:00,
2013-08-16 19:51:00,84.9,63.6,29.98,North,360,0.0,2.0,49,0.00,,FEW060,0.08,VWS V14.01,2013-08-17 00:51:00,
2013-08-16 19:55:00,86.5,65.1,29.96,NE,54,0.0,3.0,49,0.00,,CLR,0.08,VWS V14.01,2013-08-17 00:55:00,
2013-08-16 19:56:00,84.7,63.5,29.98,North,351,0.0,0.0,49,0.00,,FEW060,0.08,VWS V14.01,2013-08-17 00:56:00,
2013-08-16 20:00:00,86.4,63.8,29.96,NNE,28,1.0,6.0,47,0.00,,CLR,0.08,VWS V14.01,2013-08-17 01:00:00,
2013-08-16 20:01:00,84.4,63.8,29.98,NW,321,0.0,2.0,50,0.00,,CLR,0.08,VWS V14.01,2013-08-17 01:01:00,
2013-08-16 20:05:00,86.3,63.7,29.96,NNE,20,1.0,9.0,47,0.00,,CLR,0.08,VWS V14.01,2013-08-17 01:05:00,
2013-08-16 20:06:00,84.2,63.6,29.98,NE,44,0.0,1.0,50,0.00,,CLR,0.08,VWS V14.01,2013-08-17 01:06:00,
2013-08-16 20:10:00,86.1,63.5,29.96,NNW,348,0.0,5.0,47,0.00,,CLR,0.08,VWS V14.01,2013-08-17 01:10:00,
2013-08-16 20:11:00,83.9,63.3,29.98,NNE,23,0.0,0.0,50,0.00,,CLR,0.08,VWS V14.01,2013-08-17 01:11:00,
2013-08-16 20:15:00,86.0,63.4,29.96,WNW,300,0.0,2.0,47,0.00,,CLR,0.08,VWS V14.01,2013-08-17 01:15:00,
2013-08-16 20:16:00,83.7,63.7,29.98,NE,46,0.0,1.0,51,0.00,,CLR,0.08,VWS V14.01,2013-08-17 01:16:00,
2013-08-16 20:20:00,85.9,64.0,29.96,NE,54,2.0,3.0,48,0.00,,CLR,0.08,VWS V14.01,2013-08-17 01:20:00,
2013-08-16 20:21:00,83.5,63.5,29.99,NE,44,0.0,0.0,51,0.00,,CLR,0.08,VWS V14.01,2013-08-17 01:21:00,
2013-08-16 20:25:00,85.8,63.9,29.97,NE,42,2.0,4.0,48,0.00,,CLR,0.08,VWS V14.01,2013-08-17 01:25:00,
2013-08-16 20:26:00,83.3,63.3,29.99,NNE,28,0.0,0.0,51,0.00,,CLR,0.08,VWS V14.01,2013-08-17 01:26:00,
2013-08-16 20:30:00,85.6,63.7,29.97,NW,319,1.0,3.0,48,0.00,,CLR,0.08,VWS V14.01,2013-08-17 01:30:00,
2013-08-16 20:31:00,83.0,63.6,29.99,NW,325,0.0,1.0,52,0.00,,CLR,0.08,VWS V14.01,2013-08-17 01:31:00,
2013-08-16 20:35:00,85.5,63.6,29.97,NNE,32,1.0,4.0,48,0.00,,CLR,0.08,VWS V14.01,2013-08-17 01:35:00,
2013-08-16 20:36:00,82.9,63.5,29.99,NE,41,3.0,3.0,52,0.00,,CLR,0.08,VWS V14.01,2013-08-17 01:36:00,
2013-08-16 20:40:00,85.4,63.5,29.97,NE,40,0.0,6.0,48,0.00,,CLR,0.08,VWS V14.01,2013-08-17 01:40:00,
2013-08-16 20:41:00,82.9,63.5,29.99,NNW,348,0.0,0.0,52,0.00,,CLR,0.08,VWS V14.01,2013-08-17 01:41:00,
2013-08-16 20:45:00,85.1,63.2,29.97,NE,40,0.0,1.0,48,0.00,,CLR,0.08,VWS V14.01,2013-08-17 01:45:00,
2013-08-16 20:46:00,82.6,63.8,30.00,NNE,32,1.0,1.0,53,0.00,,CLR,0.08,VWS V14.01,2013-08-17 01:46:00,
2013-08-16 20:50:00,84.9,63.0,29.98,NW,312,1.0,4.0,48,0.00,,CLR,0.08,VWS V14.01,2013-08-17 01:50:00,
2013-08-16 20:51:00,82.5,63.7,30.00,NW,314,0.0,1.0,53,0.00,,CLR,0.08,VWS V14.01,2013-08-17 01:51:00,
2013-08-16 20:55:00,84.7,63.4,29.98,NW,326,0.0,3.0,49,0.00,,CLR,0.08,VWS V14.01,2013-08-17 01:55:00,
2013-08-16 20:56:00,82.3,63.5,30.00,NE,38,0.0,0.0,53,0.00,,CLR,0.08,VWS V14.01,2013-08-17 01:56:00,
2013-08-16 21:00:00,84.5,63.3,29.98,NNW,327,0.0,3.0,49,0.00,,CLR,0.08,VWS V14.01,2013-08-17 02:00:00,
2013-08-16 21:01:00,82.0,63.7,30.00,NW,314,0.0,0.0,54,0.00,,FEW250,0.08,VWS V14.01,2013-08-17 02:01:00,
2013-08-16 21:05:00,84.3,63.7,29.98,NNW,344,0.0,3.0,50,0.00,,CLR,0.08,VWS V14.01,2013-08-17 02:05:00,
2013-08-16 21:06:00,81.7,63.5,30.00,NNE,25,0.0,0.0,54,0.00,,FEW250,0.08,VWS V14.01,2013-08-17 02:06:00,
2013-08-16 21:10:00,84.0,63.4,29.98,NNW,331,0.0,3.0,50,0.00,,CLR,0.08,VWS V14.01,2013-08-17 02:10:00,
2013-08-16 21:11:00,81.6,63.9,30.00,NNE,25,0.0,1.0,55,0.00,,FEW250,0.08,VWS V14.01,2013-08-17 02:11:00,
2013-08-16 21:15:00,83.8,63.8,29.98,NW,317,0.0,2.0,51,0.00,,CLR,0.08,VWS V14.01,2013-08-17 02:15:00,
2013-08-16 21:16:00,81.4,63.2,30.00,NE,34,0.0,0.0,54,0.00,,FEW250,0.08,VWS V14.01,2013-08-17 02:16:00,
2013-08-16 21:20:00,83.6,63.6,29.99,NE,42,0.0,3.0,51,0.00,,CLR,0.08,VWS V14.01,2013-08-17 02:20:00,
2013-08-16 21:21:00,81.3,63.6,30.00,NNE,32,0.0,1.0,55,0.00,,FEW250,0.08,VWS V14.01,2013-08-17 02:21:00,
2013-08-16 21:25:00,83.3,63.3,29.99,NNE,27,0.0,2.0,51,0.00,,CLR,0.08,VWS V14.01,2013-08-17 02:25:00,
2013-08-16 21:26:00,81.2,63.5,30.01,NE,35,0.0,0.0,55,0.00,,FEW250,0.08,VWS V14.01,2013-08-17 02:26:00,
2013-08-16 21:30:00,83.1,63.7,29.99,NNE,32,0.0,2.0,52,0.00,,CLR,0.08,VWS V14.01,2013-08-17 02:30:00,
2013-08-16 21:31:00,81.0,63.3,30.01,NNW,335,0.0,0.0,55,0.00,,FEW250,0.08,VWS V14.01,2013-08-17 02:31:00,
2013-08-16 21:35:00,83.0,63.6,29.99,NNW,346,0.0,4.0,52,0.00,,CLR,0.08,VWS V14.01,2013-08-17 02:35:00,
2013-08-16 21:36:00,80.8,63.1,30.01,NNE,26,0.0,0.0,55,0.00,,FEW250,0.08,VWS V14.01,2013-08-17 02:36:00,
2013-08-16 21:40:00,82.9,63.5,29.99,North,11,0.0,3.0,52,0.00,,CLR,0.08,VWS V14.01,2013-08-17 02:40:00,
2013-08-16 21:41:00,80.7,63.6,30.01,NE,44,0.0,1.0,56,0.00,,FEW250,0.08,VWS V14.01,2013-08-17 02:41:00,
2013-08-16 21:45:00,82.7,63.8,30.00,NNE,24,0.0,0.0,53,0.00,,CLR,0.08,VWS V14.01,2013-08-17 02:45:00,
2013-08-16 21:46:00,80.6,63.5,30.01,North,11,0.0,0.0,56,0.00,,FEW250,0.08,VWS V14.01,2013-08-17 02:46:00,
2013-08-16 21:50:00,82.5,63.7,30.00,NE,43,0.0,2.0,53,0.00,,CLR,0.08,VWS V14.01,2013-08-17 02:50:00,
2013-08-16 21:51:00,80.4,63.3,30.02,NW,325,0.0,0.0,56,0.00,,FEW250,0.08,VWS V14.01,2013-08-17 02:51:00,
2013-08-16 21:55:00,82.3,63.5,30.00,NW,314,0.0,1.0,53,0.00,,CLR,0.08,VWS V14.01,2013-08-17 02:55:00,
2013-08-16 21:56:00,80.2,63.6,30.02,NNW,329,0.0,0.0,57,0.00,,FEW250,0.08,VWS V14.01,2013-08-17 02:56:00,
2013-08-16 22:00:00,82.1,63.8,30.00,NW,308,0.0,1.0,54,0.00,,CLR,0.08,VWS V14.01,2013-08-17 03:00:00,
2013-08-16 22:01:00,80.0,63.4,30.02,NW,326,0.0,0.0,57,0.00,,FEW250,0.08,VWS V14.01,2013-08-17 03:01:00,
2013-08-16 22:05:00,81.8,63.5,30.00,NNE,26,0.0,1.0,54,0.00,,CLR,0.08,VWS V14.01,2013-08-17 03:05:00,
2013-08-16 22:06:00,79.9,63.3,30.02,NE,44,1.0,2.0,57,0.00,,FEW250,0.08,VWS V14.01,2013-08-17 03:06:00,
2013-08-16 22:10:00,81.6,63.4,30.00,NE,35,0.0,4.0,54,0.00,,CLR,0.08,VWS V14.01,2013-08-17 03:10:00,
2013-08-16 22:11:00,79.9,63.3,30.03,NW,326,0.0,0.0,57,0.00,,FEW250,0.08,VWS V14.01,2013-08-17 03:11:00,
2013-08-16 22:15:00,81.5,63.3,30.00,NE,34,0.0,1.0,54,0.00,,CLR,0.08,VWS V14.01,2013-08-17 03:15:00,
2013-08-16 22:16:00,79.9,63.3,30.03,NW,314,1.0,2.0,57,0.00,,FEW250,0.08,VWS V14.01,2013-08-17 03:16:00,
2013-08-16 22:20:00,81.3,63.6,30.00,ENE,58,1.0,1.0,55,0.00,,CLR,0.08,VWS V14.01,2013-08-17 03:20:00,
2013-08-16 22:21:00,80.0,63.4,30.03,NE,44,1.0,3.0,57,0.00,,FEW250,0.08,VWS V14.01,2013-08-17 03:21:00,
2013-08-16 22:25:00,81.2,63.5,30.00,NE,38,0.0,1.0,55,0.00,,CLR,0.08,VWS V14.01,2013-08-17 03:25:00,
2013-08-16 22:26:00,80.0,63.4,30.04,NE,42,0.0,1.0,57,0.00,,FEW250,0.08,VWS V14.01,2013-08-17 03:26:00,
2013-08-16 22:30:00,81.1,63.4,30.00,NNE,32,0.0,1.0,55,0.00,,CLR,0.08,VWS V14.01,2013-08-17 03:30:00,
2013-08-16 22:31:00,80.0,62.4,30.04,ENE,62,3.0,7.0,55,0.00,,FEW250,0.08,VWS V14.01,2013-08-17 03:31:00,
2013-08-16 22:35:00,80.9,63.2,30.00,NNW,329,0.0,1.0,55,0.00,,CLR,0.08,VWS V14.01,2013-08-17 03:35:00,
2013-08-16 22:36:00,80.0,62.4,30.04,ENE,66,4.0,7.0,55,0.00,,FEW250,0.08,VWS V14.01,2013-08-17 03:36:00,
2013-08-16 22:40:00,80.7,63.6,30.01,NE,36,0.0,1.0,56,0.00,,CLR,0.08,VWS V14.01,2013-08-17 03:40:00,
2013-08-16 22:41:00,79.9,62.3,30.05,NE,47,1.0,5.0,55,0.00,,FEW250,0.08,VWS V14.01,2013-08-17 03:41:00,
2013-08-16 22:45:00,80.6,63.5,30.01,North,11,0.0,1.0,56,0.00,,CLR,0.08,VWS V14.01,2013-08-17 03:45:00,
2013-08-16 22:46:00,79.7,62.6,30.05,NE,35,2.0,9.0,56,0.00,,FEW250,0.08,VWS V14.01,2013-08-17 03:46:00,
2013-08-16 22:50:00,80.5,63.4,30.02,NW,323,0.0,1.0,56,0.00,,CLR,0.08,VWS V14.01,2013-08-17 03:50:00,
2013-08-16 22:51:00,79.6,62.5,30.05,NE,38,7.0,7.0,56,0.00,,FEW250,0.08,VWS V14.01,2013-08-17 03:51:00,
2013-08-16 22:55:00,80.3,63.7,30.02,NE,51,0.0,1.0,57,0.00,,CLR,0.08,VWS V14.01,2013-08-17 03:55:00,
2013-08-16 22:56:00,79.4,62.3,30.05,ESE,119,0.0,7.0,56,0.00,,FEW250,0.08,VWS V14.01,2013-08-17 03:56:00,
2013-08-16 23:00:00,80.1,63.5,30.02,NNE,31,0.0,0.0,57,0.00,,CLR,0.08,VWS V14.01,2013-08-17 04:00:00,
2013-08-16 23:01:00,79.2,62.7,30.05,NE,46,0.0,2.0,57,0.00,,CLR,0.08,VWS V14.01,2013-08-17 04:01:00,
2013-08-16 23:05:00,79.9,63.8,30.02,NE,42,0.0,2.0,58,0.00,,CLR,0.08,VWS V14.01,2013-08-17 04:05:00,
2013-08-16 23:06:00,78.8,62.3,30.05,NNE,18,4.0,5.0,57,0.00,,CLR,0.08,VWS V14.01,2013-08-17 04:06:00,
2013-08-16 23:10:00,79.9,63.3,30.02,NW,326,0.0,4.0,57,0.00,,CLR,0.08,VWS V14.01,2013-08-17 04:10:00,
2013-08-16 23:11:00,78.6,62.1,30.06,East,100,0.0,1.0,57,0.00,,CLR,0.08,VWS V14.01,2013-08-17 04:11:00,
2013-08-16 23:15:00,79.8,63.2,30.03,NE,44,0.0,3.0,57,0.00,,CLR,0.08,VWS V14.01,2013-08-17 04:15:00,
2013-08-16 23:16:00,78.4,62.4,30.06,NE,47,3.0,5.0,58,0.00,,CLR,0.08,VWS V14.01,2013-08-17 04:16:00,
2013-08-16 23:20:00,79.9,63.3,30.03,NNE,28,2.0,2.0,57,0.00,,CLR,0.08,VWS V14.01,2013-08-17 04:20:00,
2013-08-16 23:21:00,78.3,62.3,30.06,NE,35,0.0,3.0,58,0.00,,CLR,0.08,VWS V14.01,2013-08-17 04:21:00,
2013-08-16 23:25:00,80.0,63.4,30.03,NE,42,0.0,3.0,57,0.00,,CLR,0.08,VWS V14.01,2013-08-17 04:25:00,
2013-08-16 23:26:00,78.0,62.0,30.06,NE,51,0.0,3.0,58,0.00,,CLR,0.08,VWS V14.01,2013-08-17 04:26:00,
2013-08-16 23:30:00,79.9,62.8,30.04,NE,51,2.0,8.0,56,0.00,,CLR,0.08,VWS V14.01,2013-08-17 04:30:00,
2013-08-16 23:31:00,77.8,62.3,30.07,NE,40,0.0,4.0,59,0.00,,CLR,0.08,VWS V14.01,2013-08-17 04:31:00,
2013-08-16 23:35:00,80.0,62.4,30.04,NE,51,3.0,7.0,55,0.00,,CLR,0.08,VWS V14.01,2013-08-17 04:35:00,
2013-08-16 23:36:00,77.5,62.1,30.07,NE,44,1.0,3.0,59,0.00,,CLR,0.08,VWS V14.01,2013-08-17 04:36:00,
2013-08-16 23:40:00,80.0,62.4,30.04,ENE,78,3.0,8.0,55,0.00,,CLR,0.08,VWS V14.01,2013-08-17 04:40:00,
2013-08-16 23:41:00,77.4,62.0,30.07,NE,51,1.0,3.0,59,0.00,,CLR,0.08,VWS V14.01,2013-08-17 04:41:00,
2013-08-16 23:45:00,79.8,62.2,30.05,NE,41,0.0,5.0,55,0.00,,CLR,0.08,VWS V14.01,2013-08-17 04:45:00,
2013-08-16 23:46:00,77.2,62.2,30.07,NE,47,2.0,5.0,60,0.00,,CLR,0.08,VWS V14.01,2013-08-17 04:46:00,
2013-08-16 23:50:00,79.7,62.1,30.05,ENE,78,2.0,9.0,55,0.00,,CLR,0.08,VWS V14.01,2013-08-17 04:50:00,
2013-08-16 23:51:00,77.0,62.1,30.07,NE,47,0.0,2.0,60,0.00,,CLR,0.08,VWS V14.01,2013-08-17 04:51:00,
2013-08-16 23:55:00,79.4,62.3,30.05,ESE,104,7.0,7.0,56,0.00,,CLR,0.08,VWS V14.01,2013-08-17 04:55:00,
2013-08-16 23:56:00,76.9,62.4,30.07,NE,51,1.0,3.0,61,0.00,,CLR,0.08,VWS V14.01,2013-08-17 04:56:00,